Regional Weather Roundup
Issued by NWS Boston, MA

Home | Current Version | Previous Version | Text Only | Print | Product List | Glossary On
Versions: 1 2 3 4 5 6 7 8 9 10 11 12 13 14 15 16 17 18 19 20 21 22 23 24 25 26 27 28 29 30 31 32 33 34 35 36 37 38 39 40 41 42 43 44 45 46 47 48 49 50
000
ASUS41 KBOX 240410
RWRBOX

REGIONAL WEATHER ROUNDUP
NATIONAL WEATHER SERVICE TAUNTON MA
1200 AM EDT SAT JUN 24 2017

NOTE:  "FAIR" INDICATES FEW OR NO CLOUDS BELOW 12,000 FEET WITH NO
SIGNIFICANT WEATHER AND/OR OBSTRUCTIONS TO VISIBILITY.

MAZALL-240500-
EASTERN MASSACHUSETTS

CITY           SKY/WX    TMP DP  RH WIND       PRES   REMARKS
BOSTON         MOCLDY    74  70  87 SW9       29.59F
BEVERLY        MOCLDY    76  71  85 SW9G18    29.58F
LAWRENCE       CLOUDY    78  71  79 SW8       29.59F
BEDFORD        CLOUDY    74  69  85 S9        29.58F
BLUE HILL        N/A     72  68  87 S13G21    29.62F
NORWOOD        CLOUDY    75  71  87 S7        29.60F
MARSHFIELD     PTCLDY    73  72  94 SW10G17   29.62F
PLYMOUTH       CLOUDY    72  68  87 SW10      29.65F
TAUNTON        CLOUDY    72  68  87 S7        29.63F
NEW BEDFORD    CLOUDY    71  68  90 SW21G30   29.64F
$$

MAZALL-240500-
CAPE COD AND THE ISLANDS

CITY           SKY/WX    TMP DP  RH WIND       PRES   REMARKS
FALMOUTH         N/A    N/A N/A N/A MISG        N/A
HYANNIS        CLOUDY    70  68  93 SW15G26   29.66F FOG
CHATHAM        CLOUDY    68  68 100 SW13G22   29.69F FOG
PROVINCETOWN   CLOUDY    66  66 100 SW20      29.65S FOG
NANTUCKET      FOG       65  65 100 SW17      29.70F VSB 3/4
MARTHAS VNYRD  CLOUDY    68  66  93 SW17G26   29.68F FOG
$$

MAZALL-240500-
CENTRAL AND WESTERN MASSACHUSETTS

CITY           SKY/WX    TMP DP  RH WIND       PRES   REMARKS
WORCESTER      MOCLDY    71  69  93 SW14      29.63F
FITCHBURG      MOCLDY    78  71  79 S8        29.60F
ORANGE         CLOUDY    75  71  87 S8        29.59F
SPRINGFIELD    CLOUDY    75  70  84 S10       29.58F
WESTFIELD      PTCLDY    75  72  90 S13         N/A
NORTH ADAMS    CLOUDY    75  69  81 CALM      29.58F
PITTSFIELD     CLOUDY    74  68  81 SW12G17   29.60F
$$

RIZALL-240500-
RHODE ISLAND

CITY           SKY/WX    TMP DP  RH WIND       PRES   REMARKS
PROVIDENCE     PTCLDY    73  71  93 SW12      29.64F
NEWPORT        CLOUDY    68  68 100 S10G18    29.65F FOG
BLOCK ISLAND   CLOUDY    68  67  96 SW20G26   29.65F FOG
WESTERLY       CLOUDY    71  68  90 S15       29.64F FOG
$$

CTZALL-240500-
CONNECTICUT

CITY           SKY/WX    TMP DP  RH WIND       PRES   REMARKS
BRADLEY INTL   CLOUDY    76  71  85 S8        29.60F
HARTFORD       MOCLDY    76  71  85 S7        29.60F
BRIDGEPORT     CLOUDY    74  69  85 SW3       29.62F
DANBURY        CLOUDY    76  73  91 SW7       29.64F
GROTON         CLOUDY    69  66  90 SW7       29.63F
NEW HAVEN      NOT AVBL
CHESTER        FAIR      73  72  94 VRB6      29.65F
MERIDEN        CLOUDY    74  70  87 S7        29.62F
WILLIMANTIC    MOCLDY    77  72  84 S6        29.63F
OXFORD         CLOUDY    73  68  83 SW6       29.66S
$$

MEZ002-015-021-024-NHZ003-005-008-011-012-014-VTZ005-008-240500-
NORTHERN NEW ENGLAND

CITY           SKY/WX    TMP DP  RH WIND       PRES   REMARKS
PORTLAND ME    CLOUDY    67  64  90 S6        29.54F
BANGOR ME      CLOUDY    64  63  96 S9        29.55F FOG
CONCORD NH     MOCLDY    77  70  79 SW8       29.57F
MANCHESTER NH  CLOUDY    77  68  73 S9        29.56F
NASHUA NH      CLOUDY    76  71  85 VRB5      29.58F
PORTSMOUTH NH  MOCLDY    76  69  80 SW13      29.55F
JAFFREY NH     CLOUDY    74  72  93 SW8       29.62F
KEENE NH       CLOUDY    75  71  87 VRB7      29.58F
BURLINGTON VT  MOCLDY    74  71  91 S10       29.49F
MT. WASHINGTON FOG       55  55 100 W47         N/A  VSB 0
$$

NYZ052-076-240500-
EASTERN NEW YORK

CITY           SKY/WX    TMP DP  RH WIND       PRES   REMARKS
ALBANY         LGT RAIN  74  71  91 S8        29.57R FOG
NEW YORK CITY  MOCLDY    82  74  76 SW10      29.62S
$$

ANZALL-240500-
MARINE OBSERVATIONS

STATION/POSITION TIME  TEMP    WIND        PRES    VSBY  WAVE
                       AIR SEA DIR/SP/G                  HT/PER
                 (UTC) (F)     (DEG/KT/KT) (MB)    (MI)  (FT/S)
BOSTON BUOY      0250   64 59  170/ 10/ 12 1002.7          2/ 4
BUZZARDS BAY     0300   67     210/ 22/ 25 1004.8F
NANTUCKET SOUND  0350      65              1004.2F         3/ 4
MASS BAY-STELLWA 0304   65 61  200/ 14/ 16 1001.6F         3/ 5
ISLE OF SHOALS   0300   68     190/ 27/ 29 1001.0F
S OF BLOCK IS    0355      63                N/A           5/ 6
$$

......................KEY.........................
  SKY/WX - SKY CONDITION/PRESENT WEATHER
  TMP    - TEMPERATURE IN FAHRENHEIT
  DWPT   - DEWPOINT IN FAHRENHEIT
  RH     - RELATIVE HUMIDITY IN PERCENT
  WIND   - DIRECTION AND SPEED IN MPH
  PRES   - MEAN SEA LEVEL PRESSURE IN INCHES OF HG
  WCI    - WIND CHILL INDEX
  VSB    - VISIBILITY IN MILES
  HX     - HEAT INDEX
  TC     - TEMPERATURE IN CELSIUS
  VRB    - VARIABLE WIND DIRECTION
  N/A    - NOT AVAILABLE



USA.gov is the U.S. government's official web portal to all federal, state and local government web resources and services.